Home > Weather > Kaiserslautern > Past weeks

Flag for Germany Weather for the Past 2 Weeks in Kaiserslautern, Rhineland-Palatinate, Germany

Now
46 °F

Passing clouds.


Feels Like: 39 °F
Forecast: 38 / 48 °F
Wind: 15 mph from Southwest

Location: Ramstein

Current Time: Feb 8, 2016 at 8:06:49 AM

Latest Report: Feb 8, 2016 at 6:58 AM


Visibility: N/A

Pressure: 29.56 "Hg

Humidity: 72%

Dew point: 37 °F

Location of KaiserslauternLocation

Historic Weather in Kaiserslautern — Graph

°F

Kaiserslautern Temperature Yesterday

Maximum temperature yesterday: 52 °F (at 1:58 AM)
Minimum temperature yesterday: 43 °F (at 9:58 PM)
Average temperature yesterday: 47 °F

High & Low Weather Summary for the Past Weeks

 TemperatureHumidityPressure
High59 °F (Jan 25, 3:58 PM)100% (Jan 24, 6:58 AM)30.57 "Hg (Jan 24, 6:58 AM)
Low32 °F (Feb 5, 3:58 AM)55% (Feb 6, 3:58 PM)29.56 "Hg (Feb 8, 6:58 AM)
Average45 °F88%30.16 "Hg
* Reported Jan 24 6:58 AM — Feb 8 6:58 AM, Kaiserslautern, Weather by CustomWeather, © 2016

Note: Actual official high and low records may vary slightly from our data, if they occured in-between our weather recording intervals... More about our weather records

Advertising

Kaiserslautern Weather History for the Previous 24 Hours

 ConditionsComfort  
Time TempWeatherWind HumidityBarometerVisibility
6:58 AM
Mon, Feb 8
46 °FPassing clouds.15 mph72%29.56 "HgN/A
5:58 AM46 °FOvercast.15 mph72%29.60 "HgN/A
4:58 AM44 °FPartly cloudy.16 mph77%29.63 "HgN/A
3:58 AM44 °FLight rain. Passing clouds.14 mph76%29.66 "HgN/A
2:58 AM43 °FOvercast.15 mph76%29.70 "HgN/A
1:58 AM43 °FPassing clouds.15 mph77%29.73 "HgN/A
12:58 AM43 °FPassing clouds.15 mph80%29.76 "HgN/A
11:58 PM
Sun, Feb 7
44 °FPassing clouds.12 mph80%29.78 "HgN/A
10:58 PM44 °FPassing clouds.10 mph83%29.80 "HgN/A
9:58 PM43 °FPartly cloudy.13 mph85%29.80 "HgN/A
8:58 PM44 °FPassing clouds.10 mph79%29.80 "HgN/A
7:59 PM45 °FPassing clouds.10 mph87%29.77 "HgN/A
6:58 PM45 °FPassing clouds.10 mph84%29.78 "HgN/A
5:58 PM45 °FPassing clouds.10 mph84%29.76 "HgN/A
4:58 PM46 °FSunny.10 mph77%29.72 "HgN/A
3:58 PM46 °FPassing clouds.13 mph77%29.72 "HgN/A
2:58 PM46 °FScattered clouds.13 mph82%29.70 "HgN/A
1:58 PM47 °FPartly sunny.8 mph88%29.68 "HgN/A
12:59 PM46 °FPartly sunny.8 mph93%29.67 "HgN/A
12:58 PM46 °FLight rain. Broken clouds.10 mph93%29.69 "HgN/A
11:58 AM45 °FLight rain. Overcast.7 mph100%29.67 "HgN/A
10:58 AM46 °FLight rain. Partly sunny.9 mph93%29.65 "HgN/A
9:59 AM50 °FLight rain. Partly sunny.12 mph76%29.58 "HgN/A
8:58 AM52 °FScattered clouds.13 mph62%29.58 "HgN/A
Weather by CustomWeather, © 2016

See weather overviewHow to use our weather pages